{"data":{"norad_id":57060,"epoch":"2026-05-24T18:34:00.664320Z","epoch_age_seconds":101566,"freshness":"FRESH","line1":"1 57060U 23088N   26144.77361880  .00000357  00000+0  22499-4 0  9990","line2":"2 57060  43.0083  41.3810 0001637 264.3043  95.7622 15.27577248161966","mean_motion":15.27577248,"eccentricity":0.0001637,"inclination_deg":43.0083,"raan_deg":41.381,"arg_perigee_deg":264.3043,"mean_anomaly_deg":95.7622,"bstar":2.2499e-5,"rev_number":16196,"period_min":94.266918539494,"perigee_km":481.93415901716,"apogee_km":484.18051404294,"semimajor_km":6861.1943365301,"source":"CELESTRAK","updated_at":"2026-05-25T13:38:18.210519Z"}}